Home   Weather   Brattleboro   Past weeks
Flag for USA

Past Weather in Brattleboro, Vermont, USA — Yesterday and Last 2 Weeks

Now
46 °F

Fog.


Feels Like: 46 °F
Forecast: 61 / 39 °F
Wind: No wind

Location: Keene / Dillant

Current Time: Oct 21, 2019 at 1:05:22 am

Latest Report: Oct 21, 2019 at 12:22 am


Visibility: 2 mi

Pressure: 30.06 "Hg

Humidity: 100%

Dew Point: 46 °F

Location of BrattleboroLocation

Past Weather in Brattleboro — Graph

°F

Brattleboro Temperature Yesterday

Maximum temperature yesterday: 57 °F (at 1:56 pm)
Minimum temperature yesterday: 27 °F (at 6:03 am)
Average temperature yesterday: 40 °F

High & Low Weather Summary for the Past Weeks

 TemperatureHumidityPressure
High68 °F (Oct 14, 3:56 pm)100% (Oct 5, 11:20 pm)30.43 "Hg (Oct 5, 11:20 pm)
Low27 °F (Oct 20, 6:03 am)32% (Oct 15, 2:56 pm)28.79 "Hg (Oct 17, 5:36 am)
Average48 °F81%30.04 "Hg
* Reported Oct 5 11:20 pm — Oct 20 11:56 pm, Brattleboro. Weather by CustomWeather, © 2019

Note: Actual official high and low records may vary slightly from our data, if they occured in-between our weather recording intervals... More about our weather records

Advertising

Brattleboro Weather History for the Previous 24 Hours

Scroll right to see more
 ConditionsComfort  
Time TempWeatherWind HumidityBarometerVisibility
11:56 pm
Sun, Oct 20
48 °FFog.No wind100%30.07 "Hg6 mi
11:23 pm48 °FMostly cloudy.No wind100%30.06 "Hg8 mi
10:56 pm48 °FOvercast.No wind100%30.07 "Hg8 mi
9:56 pm49 °FMostly cloudy.No wind97%30.09 "Hg9 mi
8:56 pm49 °FOvercast.No wind100%30.07 "Hg10 mi
7:56 pm49 °FLight rain. Mostly cloudy.No wind97%30.09 "Hg10 mi
6:56 pm49 °FLight rain. Overcast.No wind97%30.07 "Hg10 mi
5:56 pm51 °FLight rain. More clouds than sun.No wind86%30.08 "Hg10 mi
4:56 pm54 °FLight rain. Overcast.No wind72%30.07 "Hg10 mi
3:56 pm57 °FScattered clouds.3 mph53%30.08 "Hg10 mi
2:56 pm57 °FPassing clouds.3 mph53%30.08 "Hg10 mi
1:56 pm57 °FPartly sunny.No wind53%30.07 "Hg10 mi
12:56 pm55 °FSunny.No wind53%30.09 "Hg10 mi
11:56 am50 °FSunny.No wind63%30.11 "Hg9 mi
10:56 am43 °FSunny.No wind76%30.13 "Hg10 mi
9:56 am40 °FSunny.No wind93%30.14 "Hg10 mi
9:18 am34 °FPassing clouds.3 mph100%30.11 "Hg10 mi
8:56 am33 °FSunny.No wind100%30.12 "Hg10 mi
8:27 am30 °FScattered clouds.No wind100%30.10 "Hg10 mi
7:56 am30 °FIce fog.No wind96%30.11 "Hg0 mi
7:44 am28 °FIce fog.No wind100%30.09 "Hg0 mi
7:08 am28 °FPassing clouds.No wind100%30.09 "Hg10 mi
6:15 am27 °FIce fog.5 mph100%30.09 "Hg1 mi
6:03 am27 °FIce fog.5 mph100%30.09 "Hg1 mi
5:38 am28 °FIce fog.3 mph93%30.08 "Hg3 mi
4:56 am28 °FPassing clouds.No wind100%30.10 "Hg10 mi
4:16 am28 °FPassing clouds.No wind100%30.08 "Hg10 mi
3:56 am28 °FClear.No wind100%30.11 "Hg10 mi
2:56 am29 °FClear.No wind96%30.11 "Hg10 mi
1:56 am30 °FClear.No wind96%30.09 "Hg8 mi
Weather by CustomWeather, © 2019

See weather overview